User: anonymous   Login
Location: Unspecified
(0.0000°N, 0.0000°E)
Time: 00:44:59
(UTC+00:00)
Language:

POLYITAN 1 - Orbit

View from above orbital plane
View from above orbital plane
View from above satellite
View from above satellite

Ground track
Ground track

The orbit data is extracted from the following two-line orbital elements,

1 40042U 14033AJ  21023.53685076  .00000442  00000-0  52915-4 0  9995
2 40042  97.9355 314.6100 0013281 288.9518  71.0259 14.89090268357748
Epoch (UTC): 23 January 2021 12:53:03
Eccentricity: 0.0013281
inclination: 97.9355°
perigee height: 591 km
apogee height: 610 km
right ascension of ascending node: 314.6100°
argument of perigee: 288.9518°
revolutions per day: 14.89090268
mean anomaly at epoch: 71.0259°
orbit number at epoch: 35774

The dashed part of the orbit path shows where the satellite is in the earth's shadow,  

DLR